Theta_e
326 329 329 327 326 326 326 326 327 328 328 328 328 330 330 331 333 334 335 338 346 343 340 336 336 334 331 329 327 327 327 327 322 320 321 321 320 321 320 320 323 321 320 319
329 328 327 326 326 327 327 328 330 328 328 328 328 329 330 333 335 334 334 339 344 339 335 334 333 331 330 327 326 326 325 322 321 322 321 321 321 320 320 323 321 319 320 319
329 328 326 326 327 327 329 329 328 328 328 328 329 329 332 334 335 336 336 336 341 338 332 331 329 330 327 324 324 323 323 322 322 321 321 320 322 322 324 324 323 322 320 319
328 327 326 327 329 328 330 329 327 328 328 329 328 326 331 334 337 337 337 337 337 335 332 332 331 329 328 328 327 325 325 322 322 323 321 321 323 323 323 322 322 321 319 318
329 328 328 329 328 328 329 328 329 328 328 328 330 329 332 332 339 340 337 335 333 330 331 331 329 329 327 325 325 325 325 323 324 324 324 324 323 322 322 321 320 318 315 314
328 327 328 328 328 329 328 329 327 326 326 327 332 330 326 334 333 341 332 331 326 323 327 327 327 326 326 325 324 321 318 316 317 317 316 317 319 318 318 317 315 314 314 313
329 329 329 328 329 328 327 328 326 327 326 326 329 328 334 335 337 338 331 326 322 322 322 320 317 317 317 316 316 315 316 316 316 316 316 316 315 315 314 314 313 313 312 312
331 330 330 329 328 328 326 326 329 329 323 325 327 330 338 337 331 329 326 322 319 317 315 315 315 315 316 315 315 315 315 314 314 314 314 314 314 313 313 313 312 312 311 311
331 330 329 329 328 326 327 328 327 327 330 330 327 333 335 334 332 328 326 321 317 316 316 317 317 316 316 315 315 314 314 314 314 313 313 313 312 311 311 311 311 311 311 312
331 332 328 327 326 328 328 328 329 329 328 327 327 328 333 330 328 332 327 323 318 318 319 318 317 317 315 315 314 314 314 313 312 312 311 311 311 311 310 310 311 311 312 312
329 329 329 326 328 327 325 326 328 328 328 328 327 327 328 329 329 331 325 322 320 319 317 318 317 316 315 313 314 313 313 311 311 310 310 310 310 310 310 311 311 311 311 312
328 327 330 328 327 326 327 327 327 329 329 327 326 329 328 327 326 326 323 320 319 317 317 317 315 314 315 314 312 311 311 310 309 309 309 309 310 310 311 311 310 311 311 311
329 327 329 327 329 329 329 327 325 325 327 328 327 332 327 324 324 323 321 319 317 317 317 315 316 315 313 311 311 310 309 309 309 309 309 310 310 310 310 311 310 310 310 310
326 329 330 329 328 326 325 325 325 324 326 326 326 329 328 325 323 321 321 320 317 317 318 316 314 312 310 310 309 309 309 309 309 309 309 310 310 310 309 310 309 309 309 310
329 332 327 325 325 324 325 325 325 325 324 326 326 328 327 323 322 321 320 321 319 317 315 313 311 310 309 309 308 307 308 308 308 308 309 309 309 308 308 309 309 309 309 309
326 329 327 326 324 324 326 325 325 324 325 326 326 327 322 322 320 320 318 317 316 314 313 311 310 309 308 307 308 308 308 308 307 307 307 308 308 308 309 309 309 308 307 308
325 325 327 327 325 326 327 328 326 326 327 326 328 323 320 320 319 318 317 316 314 312 312 310 309 308 308 308 309 309 308 307 306 306 306 307 307 308 308 307 307 306 307 306
328 330 330 330 328 330 328 326 326 326 325 323 323 321 319 318 317 319 316 314 312 311 309 308 308 308 308 309 309 307 307 306 307 307 307 307 307 307 306 305 305 304 305 304
327 328 330 330 332 328 327 326 325 326 326 323 321 320 318 317 315 317 314 312 310 309 308 308 308 307 308 308 308 307 307 307 307 307 307 307 306 305 305 305 305 303 302 302
327 328 329 331 331 330 328 325 323 323 326 321 319 318 317 314 315 316 312 310 309 308 308 308 307 307 307 308 306 307 307 307 307 307 307 306 306 305 302 303 302 302 302 301
330 328 329 328 329 328 325 323 321 327 326 320 318 317 314 315 314 313 311 309 308 308 308 307 307 306 307 306 306 308 308 307 307 307 306 305 303 302 302 302 301 301 300 300
327 328 329 327 328 330 322 323 324 322 320 319 317 315 313 313 312 311 309 309 308 308 307 307 307 307 307 307 307 307 307 306 306 306 306 303 303 302 301 301 301 300 300 301
327 326 326 326 327 324 322 322 321 320 319 317 315 313 313 312 310 309 310 309 308 307 307 307 308 307 307 307 307 306 305 304 305 305 304 302 302 302 302 302 301 301 301 301
325 323 323 323 324 323 322 321 319 318 317 314 312 312 312 310 310 309 309 308 307 307 307 307 307 307 305 304 304 303 302 302 302 303 302 303 302 302 302 302 301 302 302 303
323 322 322 324 323 322 321 320 318 316 314 312 312 311 310 310 309 309 309 308 307 307 308 306 305 304 303 303 304 304 303 303 303 303 302 303 302 303 303 302 302 302 303 304
322 324 324 325 322 322 322 319 317 316 313 311 312 310 310 309 309 309 309 307 306 308 307 306 305 305 305 305 305 305 304 304 304 303 303 303 303 304 304 304 304 304 304 305
Wind_Speed
9 13 8 14 8 8 6 7 6 7 8 10 16 9 2 5 6 10 9 2 21 22 17 14 7 5 16 17 19 18 17 11 10 7 5 17 22 19 23 18 12 20 18 26
12 9 5 4 5 6 6 8 9 8 3 8 14 10 8 3 8 12 11 10 17 14 13 8 7 12 12 13 15 13 10 9 5 4 13 20 19 17 18 19 19 21 23 22
8 11 2 7 3 9 5 6 10 14 15 17 13 14 14 11 10 12 16 11 17 11 9 8 9 11 11 16 16 16 10 2 9 17 14 14 17 18 14 12 10 12 14 17
6 5 6 8 4 10 7 11 13 15 15 14 18 12 13 14 13 14 18 14 15 12 10 10 11 16 20 16 14 8 3 3 4 9 10 12 15 15 16 18 15 17 17 19
11 6 5 2 10 9 14 13 15 19 20 15 13 7 13 9 17 16 18 18 16 18 16 15 16 17 14 13 3 5 5 7 9 10 12 15 17 16 13 14 18 20 21 15
8 1 4 9 7 5 11 16 20 23 18 12 13 4 4 10 3 16 18 16 13 13 13 14 12 13 9 6 9 11 12 13 12 10 12 12 13 15 16 17 18 16 14 13
4 10 6 4 12 13 17 16 11 7 9 9 5 5 12 13 13 19 18 13 11 11 13 14 14 14 12 12 12 11 10 7 8 10 11 12 13 15 15 14 13 13 13 13
5 2 5 8 10 12 20 10 8 12 13 14 18 7 1 15 17 24 19 15 13 16 15 14 15 13 12 9 7 7 9 10 15 13 13 13 13 12 11 10 13 11 12 12
8 5 2 4 8 9 10 11 14 10 19 13 7 15 12 16 11 14 17 15 15 12 10 10 9 9 9 10 11 13 15 16 16 15 13 12 11 11 10 12 11 11 12 13
4 11 8 4 8 10 5 7 9 6 10 10 12 8 7 11 11 15 14 15 14 10 8 8 8 11 12 13 15 16 16 16 16 15 12 11 11 10 11 10 12 12 13 13
7 7 12 14 2 10 12 8 8 8 8 9 11 7 10 10 13 14 16 14 12 11 8 12 14 16 13 17 16 18 18 18 12 11 11 12 11 9 10 11 12 14 14 14
7 6 10 17 6 4 8 4 6 7 11 11 11 5 11 12 16 16 15 11 10 12 12 13 13 16 14 15 17 18 13 13 12 12 13 12 10 11 11 12 13 14 14 14
8 5 9 11 6 4 5 12 10 9 8 14 12 3 9 10 13 14 12 14 10 12 12 14 10 14 18 18 18 15 13 13 15 14 13 12 12 12 13 13 13 13 13 15
3 7 12 12 15 14 11 12 11 8 9 14 10 8 12 14 14 14 10 5 11 11 9 9 16 19 18 14 12 14 15 15 15 16 16 11 12 12 13 13 11 12 12 13
2 11 14 16 17 15 16 12 10 11 16 11 12 14 11 12 11 6 8 11 7 11 12 14 19 16 13 11 13 13 14 15 16 17 15 15 15 15 15 11 11 11 12 12
8 11 14 17 17 17 12 10 9 10 10 14 9 6 10 13 9 9 9 10 15 13 15 16 13 12 13 12 14 15 16 15 15 16 18 18 18 18 14 12 11 11 12 13
10 11 12 16 17 13 9 7 6 9 11 11 9 6 13 9 8 6 12 14 12 15 15 13 9 11 14 15 16 15 16 17 17 18 18 19 18 16 12 12 10 12 13 14
9 9 10 10 11 10 6 8 9 6 6 5 10 8 8 11 17 11 11 12 14 14 10 10 12 14 15 16 15 17 17 17 16 17 17 15 14 13 12 13 14 13 14 13
4 9 6 3 6 2 3 5 5 5 4 5 9 10 13 16 10 12 11 12 10 8 10 12 14 15 15 15 17 17 16 18 16 14 14 14 12 14 15 14 14 14 15 14
6 6 5 7 5 3 3 3 2 9 2 10 12 12 15 16 8 15 14 9 8 9 11 13 15 15 17 16 18 16 16 18 15 14 13 13 13 14 18 15 15 16 14 11
1 4 5 3 4 5 3 7 6 4 4 8 11 13 12 10 9 10 8 7 9 10 13 14 15 15 14 16 15 15 16 17 15 12 11 14 16 14 13 14 13 15 11 7
5 4 3 4 3 2 7 3 6 3 3 8 9 10 9 7 7 6 7 9 11 12 14 15 15 15 14 13 15 17 17 17 16 14 15 14 15 15 13 12 14 13 13 14
1 5 5 4 4 4 6 8 5 4 7 7 8 7 6 6 6 6 9 9 12 14 14 15 15 15 15 17 15 15 14 13 13 12 11 13 12 13 12 13 14 14 15 15
3 3 4 3 2 4 5 6 7 7 7 6 6 6 5 6 6 8 8 11 13 13 13 15 17 15 15 15 15 16 16 14 12 11 11 12 15 16 18 16 17 16 15 15
3 6 5 6 5 5 4 6 6 7 6 6 6 5 6 6 7 6 10 12 12 12 14 14 17 17 15 15 14 15 14 15 15 16 16 13 13 16 22 23 21 21 20 19
4 7 4 2 6 6 7 6 5 4 5 5 4 6 6 6 5 7 9 11 10 11 13 12 16 17 16 16 16 15 15 14 14 15 16 16 17 18 17 21 23 23 21 19
Wind_Direction
220 240 12 35 2 347 353 318 305 28 52 298 303 298 271 344 6 14 356 18 61 70 70 77 69 81 137 166 176 187 195 175 125 115 329 298 283 268 267 261 285 272 297 298
230 75 53 8 335 305 299 300 20 308 205 275 284 282 218 108 55 45 29 45 86 82 82 64 110 142 148 168 165 172 153 158 200 264 306 294 292 266 263 283 288 288 292 297
5 73 100 279 204 317 202 354 348 320 314 289 291 263 153 135 93 78 73 53 85 77 81 99 114 123 137 131 135 129 123 137 227 279 281 271 283 281 297 295 297 296 285 305
42 71 284 256 92 330 323 14 325 309 306 304 314 297 192 149 134 97 80 67 64 87 102 113 125 124 131 133 145 172 345 339 320 301 282 265 283 285 281 284 300 280 304 305
81 31 334 302 24 330 348 321 293 292 286 280 304 227 140 179 79 87 76 66 68 74 112 127 148 155 163 168 21 11 319 300 318 304 295 293 292 293 291 279 279 295 307 298
75 4 13 4 297 246 293 309 311 277 257 250 121 301 309 128 112 101 88 79 72 81 107 119 143 186 218 214 299 353 2 1 336 335 330 322 312 298 297 295 298 305 299 303
262 173 120 312 329 346 351 313 316 325 335 316 104 287 54 66 64 100 100 90 80 89 91 84 71 63 58 54 40 27 350 333 321 334 321 307 300 301 312 304 301 302 305 302
343 118 340 16 350 334 299 339 295 332 313 311 280 350 307 77 65 92 98 98 90 89 78 71 62 50 40 25 15 356 335 328 336 333 321 312 308 310 307 303 310 303 298 298
328 307 146 75 337 315 342 313 339 286 261 266 324 100 57 46 99 94 105 107 101 101 97 89 69 43 20 5 352 349 349 341 332 327 322 315 307 307 301 306 307 305 305 297
14 301 314 334 293 199 279 316 342 321 319 308 311 357 40 16 22 120 112 104 110 116 104 72 45 14 1 356 348 340 338 332 327 322 316 312 310 310 309 309 310 305 301 294
342 302 306 309 2 346 316 315 1 311 279 318 306 14 48 20 23 78 94 96 100 84 61 26 7 350 347 350 341 332 327 328 325 321 317 311 311 315 312 311 310 304 296 292
51 305 297 307 32 292 289 302 352 323 315 320 290 308 52 30 45 66 82 89 85 46 11 354 343 359 346 340 334 332 334 330 327 321 314 314 308 315 311 310 309 310 312 311
12 321 313 311 164 356 299 329 318 326 311 282 295 79 17 80 58 56 90 80 39 351 342 345 354 351 341 334 336 334 333 331 330 326 315 313 318 319 321 324 327 335 335 331
341 293 289 293 315 318 304 307 308 324 290 292 312 359 8 32 51 65 62 11 339 347 339 356 343 335 336 350 343 342 338 333 332 328 326 325 309 320 323 327 336 329 328 326
275 298 305 296 305 298 285 289 314 314 305 310 347 29 19 24 67 28 347 346 7 6 9 355 336 344 348 346 345 336 339 341 335 333 330 330 319 319 314 317 320 328 338 344
314 288 292 293 280 272 293 311 313 295 338 341 4 55 326 44 32 354 353 338 18 7 343 340 347 349 345 341 343 341 343 338 334 333 329 328 319 316 318 318 326 330 336 337
294 291 294 287 296 299 297 358 313 34 27 25 12 336 26 25 346 339 6 3 6 340 350 357 352 341 348 343 335 341 343 339 335 331 333 327 328 335 330 322 339 345 346 343
295 291 287 291 296 286 89 40 16 8 29 38 260 351 16 356 346 49 31 357 354 357 3 351 351 346 336 337 340 345 344 343 337 333 335 338 344 355 349 336 342 344 337 328
284 293 307 286 311 81 84 51 30 19 91 251 7 352 1 353 310 73 16 9 10 8 359 352 347 340 337 342 347 346 341 341 340 340 343 346 358 355 355 354 350 338 338 327
246 233 276 307 286 336 60 93 332 305 97 351 0 4 359 336 335 34 10 29 12 5 355 348 341 340 343 345 343 342 346 344 352 354 357 3 1 352 343 347 339 334 337 340
349 307 296 289 275 83 41 12 315 350 35 19 4 11 4 4 10 355 6 20 11 3 351 349 346 358 354 352 348 349 351 356 356 354 6 2 353 354 337 345 357 357 1 21
329 315 321 341 318 344 345 335 4 55 61 10 18 9 8 15 18 33 37 20 11 2 356 352 357 359 352 348 351 351 353 351 352 356 354 358 354 360 21 28 19 30 51 60
330 21 329 19 16 73 46 74 76 53 48 34 20 16 22 43 62 47 35 20 11 5 3 4 1 356 350 355 357 1 355 356 1 4 355 0 30 44 32 27 35 46 63 65
62 32 285 271 107 111 102 91 85 78 70 44 37 40 57 81 64 51 28 21 12 17 16 11 6 12 17 17 18 16 22 25 27 23 35 45 59 47 36 52 55 59 60 63
103 235 311 72 56 119 131 104 104 85 67 53 49 68 93 79 59 41 33 21 24 21 23 26 24 27 28 25 27 22 33 31 41 51 61 45 56 62 59 64 71 67 65 61
23 26 26 16 21 14 132 127 119 84 57 52 73 99 94 71 52 37 45 26 25 29 33 25 16 27 36 35 29 29 31 33 52 63 51 61 68 71 63 64 63 61 59 56